Regional Weather Roundup
Issued by NWS

Home | Current Version | Previous Version | Text Only | Print | Product List | Glossary Off
Versions: 1 2 3 4 5 6 7 8 9 10 11 12 13 14 15 16 17 18 19 20 21 22 23 24 25 26 27 28 29 30 31 32 33 34 35 36 37 38 39 40 41 42 43 44 45 46 47 48 49 50

800
ASUS43 KIND 051409
RWRIN

WEATHER ROUNDUP FOR INDIANA
NATIONAL WEATHER SERVICE INDIANAPOLIS IN
1000 AM EDT THU MAY 05 2016

NOTE: "FAIR" INDICATES FEW OR NO CLOUDS BELOW 12,000 FEET WITH NO
SIGNIFICANT WEATHER AND/OR OBSTRUCTIONS TO VISIBILITY.

* - STATION DOES NOT REPORT WEATHER SUCH AS PRECIPITATION OR FOG.

+ - STATION NOT QUALITY CONTROLLED BY THE NATIONAL WEATHER SERVICE.
    USE DATA WITH CAUTION...ESPECIALLY DEWPOINT AND RELATIVE
    HUMIDITY OBSERVATIONS.

INZ001>003-010>013-019-020-051500-
NORTHWEST INDIANA

CITY           SKY/WX    TMP DP  RH WIND       PRES   REMARKS
GARY /AIRPORT/ CLOUDY    45  45 100 N17G29    29.99R
KNOX *+        CLOUDY    43  39  87 N15       29.94R
LA PORTE +     CLOUDY    45  45 100 N15       29.95R
MICHIGAN CITY+ CLOUDY    43  43 100 N10G18    29.97R
MONTICELLO +   CLOUDY    45  40  85 N14       29.91R
RENSSELAER +   CLOUDY    45  41  87 N13G21    29.94R
VALPARAISO     CLOUDY    43  39  86 N13G24    29.95R

$$

LMZ046-743>745-051500-
SOUTHERN LAKE MICHIGAN

STATION/POSITION TIME  TEMP    WIND        PRES    WAVE
                       AIR SEA DIR/SP/G            HT
                 (UTC) (F)     (DEG/KT/KT) (MB)    (FT)
BURNS HARBOR     1315   42     360/ 18/ 22 1014.9R
MICHIGAN CITY    1300   41     350/ 20/ 22   N/A

$$

INZ004-005-014>016-021>024-051500-
NORTH CENTRAL INDIANA

CITY           SKY/WX    TMP DP  RH WIND       PRES   REMARKS
ELKHART        CLOUDY    48  46  93 N6        29.92R
GOSHEN         CLOUDY    49  43  80 N10       29.90R
LOGANSPORT +   CLOUDY    46  45  93 N10       29.91R
PERU/GRISSOM   CLOUDY    48  48  99 N12G18    29.87R
ROCHESTER +    CLOUDY    50  46  87 N8G16     29.90R
SOUTH BEND     CLOUDY    46  43  89 N12       29.93R
WARSAW +       CLOUDY    46  45  93 N9G16     29.89R

$$

INZ006>009-017-018-025>027-051500-
NORTHEAST INDIANA

CITY           SKY/WX    TMP DP  RH WIND       PRES   REMARKS
ANGOLA *+        N/A     48  43  81 N9        29.88R
AUBURN +       MOSUNNY   52  45  76 N8G16     29.88R
FORT WAYNE     PTSUNNY   50  44  80 N16       29.87R
HUNTINGTON +   CLOUDY    49  44  85 N13       29.87R

$$

INZ028-029-035-036-043>045-051>053-051500-
WEST CENTRAL INDIANA

CITY           SKY/WX    TMP DP  RH WIND       PRES   REMARKS
CRAWFORDSVL +  CLOUDY    43  43 100 N8        29.91R
GREENCASTLE +  CLOUDY    45  45 100 N12       29.89R
LAFAYETTE      CLOUDY    46  41  82 N14G21    29.92R
TERRE HAUTE    CLOUDY    48  40  73 N12       29.91R

$$

INZ030>032-037>040-046>048-054>057-064-065-051500-
CENTRAL INDIANA

CITY           SKY/WX    TMP DP  RH WIND       PRES   REMARKS
ANDERSON       CLOUDY    45  41  87 NW6       29.87R
CP ATTERBURY + CLOUDY    45  37  76 N7        29.88R
COLUMBUS       CLOUDY    45  39  81 N13       29.88R
FRANKFORT +      N/A     45  45 100 N9        29.91R FOG
GREENWOOD *+   CLOUDY    45  39  81 N9        29.88R
INDIANAPOLIS   CLOUDY    46  39  76 N8        29.87R
-EAGLE CREEK   CLOUDY    46  39  76 N8        29.88R
KOKOMO *+      CLOUDY    46  43  87 N9        29.88R
MARION +       CLOUDY    44  43  96 N7        29.88R FOG
SHELBYVILLE    CLOUDY    47  38  71 N9        29.86R
ZIONSVILLE +   CLOUDY    43  41  93 N7        29.89R FOG

$$

INZ033-034-041-042-049-050-058-059-051500-
EAST CENTRAL INDIANA

CITY           SKY/WX    TMP DP  RH WIND       PRES   REMARKS
MUNCIE         CLOUDY    45  40  82 NW8       29.86R

$$

INZ060-061-067>069-081>083-085>088-051500-
SOUTHWEST INDIANA

CITY           SKY/WX    TMP DP  RH WIND       PRES   REMARKS
EVANSVILLE     CLOUDY    48  38  68 N15G21    29.91R
HUNTINGBURG *+ CLOUDY    46  37  71 N9        29.88R
WASHINGTON +   CLOUDY    47  41  81 N16G22    29.89R

$$

INZ062-063-066-070>080-084-089>092-051500-
SOUTH CENTRAL AND SOUTHEAST INDIANA

CITY           SKY/WX    TMP DP  RH WIND       PRES   REMARKS
BLOOMINGTON    CLOUDY    45  39  79 N14G20    29.88R
MADISON *+     CLOUDY    45  36  70 N8        29.85R
NORTH VERNON + CLOUDY   N/A N/A N/A CALM      29.86R
SEYMOUR +      CLOUDY    46  37  71 N10G20    29.86R

$$





USA.gov is the U.S. government's official web portal to all federal, state and local government web resources and services.